Weather History for State College, PA

Change the Weather History Date:

Thursday, February 7, 2013

  Actual Average Record
Temperature  
Mean Temperature 24 °F -  
Max Temperature 33 °F 32 °F 56 °F (1990)
Min Temperature 14 °F 16 °F -6 °F (1935)
Degree Days  
Heating Degree Days 42    
Moisture  
Dew Point 14 °F    
Average Humidity 67    
Maximum Humidity 86    
Minimum Humidity 51    
Precipitation  
Precipitation 0.00 in - - ()
Sea Level Pressure  
Sea Level Pressure 30.26 in    
Wind  
Wind Speed 2 mph (SSE)    
Max Wind Speed 12 mph    
Max Gust Speed 17 mph    
Visibility 10 miles    
Events      
Averages and records for this station are not official NWS values.
T = Trace of Precipitation, MM = Missing Value Source: NWS Daily Summary

Daily Weather History Graph

Daily Weather History Graph

Search for Another Location

Airport:

Trip Planner

Search our weather history database for the weather conditions in past years. The results will help you decide how hot, cold, wet, or windy it might be!

Date:

Astronomy

Feb. 07, 2013 Rise Set
Actual Time 7:15 AM EST 5:36 PM EST
Civil Twilight 6:46 AM EST 6:05 PM EST
Nautical Twilight 6:13 AM EST 6:37 PM EST
Astronomical Twilight 5:42 AM EST 7:09 PM EST
Moon 4:53 AM EST (2/7) 2:58 PM EST (2/7)
Length of Visible Light 11h 18m
Length of Day
10h 21m
Waning Crescent, 9% of the Moon is Illuminated
Feb 7
Waning Crescent
Feb 10
New
Feb 17
First Quarter
Feb 25
Full
Mar 4
Last Quarter

Hourly Weather History & Observations

Time (EST) Temp. Windchill Dew Point Humidity Pressure Visibility Wind Dir Wind Speed Gust Speed Precip Events Conditions
12:15 AM 22.3 °F - 12.2 °F 65% 30.29 in 10.0 mi Calm Calm - N/A   Clear
12:35 AM 19.9 °F - 10.8 °F 68% 30.29 in 10.0 mi Calm Calm - N/A   Clear
12:55 AM 19.2 °F - 10.8 °F 70% 30.28 in 10.0 mi Calm Calm - N/A   Clear
1:15 AM 19.9 °F - 11.1 °F 69% 30.28 in 10.0 mi Calm Calm - N/A   Clear
1:35 AM 19.4 °F - 11.1 °F 70% 30.29 in 10.0 mi Calm Calm - N/A   Clear
1:55 AM 18.5 °F - 9.9 °F 69% 30.30 in 10.0 mi Calm Calm - N/A   Clear
2:15 AM 19.8 °F - 10.9 °F 69% 30.32 in 10.0 mi Calm Calm - N/A   Clear
2:35 AM 19.8 °F - 10.8 °F 68% 30.30 in 10.0 mi Calm Calm - N/A   Clear
2:55 AM 16.2 °F - 9.9 °F 76% 30.30 in 10.0 mi Calm Calm - N/A   Clear
3:15 AM 15.4 °F - 10.6 °F 81% 30.30 in 10.0 mi Calm Calm - N/A   Clear
3:35 AM 18.0 °F - 11.1 °F 75% 30.30 in 10.0 mi Calm Calm - N/A   Clear
3:55 AM 17.6 °F - 10.4 °F 73% 30.30 in 10.0 mi Calm Calm - N/A   Clear
4:15 AM 16.9 °F - 10.9 °F 77% 30.30 in 10.0 mi Calm Calm - N/A   Clear
4:35 AM 18.3 °F - 11.5 °F 75% 30.30 in 10.0 mi Calm Calm - N/A   Clear
4:55 AM 17.8 °F 12.5 °F 11.1 °F 75% 30.31 in 10.0 mi NNE 3.5 mph - N/A   Clear
5:15 AM 17.2 °F - 10.6 °F 75% 30.32 in 10.0 mi Calm Calm - N/A   Clear
5:53 AM 15.8 °F - 10.4 °F 79% 30.33 in 10.0 mi Calm Calm - N/A   Mostly Cloudy
6:53 AM 15.8 °F - 12.2 °F 86% 30.35 in 10.0 mi Calm Calm - N/A   Scattered Clouds
7:53 AM 14.0 °F - 10.4 °F 86% 30.35 in 10.0 mi Calm Calm - N/A   Mostly Cloudy
8:53 AM 19.4 °F - 14.0 °F 80% 30.35 in 10.0 mi Calm Calm - N/A   Overcast
9:53 AM 23.0 °F - 15.8 °F 74% 30.35 in 10.0 mi Calm Calm - N/A   Overcast
11:53 AM 28.4 °F - 14.0 °F 55% 30.31 in 10.0 mi Calm Calm - N/A   Overcast
12:53 PM 32.0 °F 24.2 °F 15.8 °F 51% 30.27 in 10.0 mi SW 9.2 mph - N/A   Overcast
2:53 PM 33.8 °F 26.4 °F 19.4 °F 56% 30.21 in 10.0 mi South 9.2 mph - N/A   Mostly Cloudy
3:53 PM 32.0 °F 25.6 °F 19.4 °F 60% 30.21 in 10.0 mi SSE 6.9 mph - N/A   Overcast
4:53 PM 32.0 °F 24.2 °F 19.4 °F 60% 30.21 in 10.0 mi South 9.2 mph - N/A   Overcast
5:53 PM 32.0 °F 25.6 °F 19.4 °F 60% 30.21 in 10.0 mi South 6.9 mph - N/A   Overcast
6:53 PM 32.0 °F 26.4 °F 17.6 °F 55% 30.22 in 10.0 mi SSE 5.8 mph - N/A   Overcast
7:53 PM 32.0 °F 26.4 °F 17.6 °F 55% 30.20 in 10.0 mi South 5.8 mph - N/A   Overcast
8:53 PM 32.0 °F 23.0 °F 15.8 °F 51% 30.18 in 10.0 mi South 11.5 mph - N/A   Overcast
9:55 PM 31.6 °F 24.4 °F 16.7 °F 54% 30.16 in 10.0 mi SE 8.1 mph - N/A   Overcast
10:15 PM 31.6 °F 23.1 °F 17.2 °F 55% 30.16 in 10.0 mi SE 10.4 mph 16.1 mph N/A   Overcast
10:35 PM 32.0 °F 24.2 °F 17.6 °F 55% 30.15 in 10.0 mi SE 9.2 mph 17.3 mph N/A   Overcast
10:55 PM 32.0 °F 23.6 °F 18.5 °F 58% 30.15 in 10.0 mi SE 10.4 mph 17.3 mph N/A   Overcast
11:15 PM 31.8 °F 27.3 °F 19.2 °F 60% 30.14 in 10.0 mi SSE 4.6 mph - N/A   Overcast
11:35 PM 31.6 °F 25.1 °F 19.9 °F 62% 30.14 in 10.0 mi South 6.9 mph - N/A   Overcast
11:55 PM 31.6 °F 27.0 °F 20.5 °F 63% 30.14 in 10.0 mi South 4.6 mph - N/A   Overcast